Regional Weather Roundup
Issued by NWS

Home | Current Version | Previous Version | Text Only | Print | Product List | Glossary Off
Versions: 1 2 3 4 5 6 7 8 9 10 11 12 13 14 15 16 17 18 19 20 21 22 23 24 25 26 27 28 29 30 31 32 33 34 35 36 37 38 39 40 41 42 43 44 45 46 47 48 49 50

000
ASUS43 KIND 100859
RWRIN

WEATHER ROUNDUP FOR INDIANA
NATIONAL WEATHER SERVICE INDIANAPOLIS IN
400 AM EST SAT DEC 10 2016

NOTE: "FAIR" INDICATES FEW OR NO CLOUDS BELOW 12,000 FEET WITH NO
SIGNIFICANT WEATHER AND/OR OBSTRUCTIONS TO VISIBILITY.

* - STATION DOES NOT REPORT WEATHER SUCH AS PRECIPITATION OR FOG.

+ - STATION NOT QUALITY CONTROLLED BY THE NATIONAL WEATHER SERVICE.
    USE DATA WITH CAUTION...ESPECIALLY DEWPOINT AND RELATIVE
    HUMIDITY OBSERVATIONS.

INZ001>003-010>013-019-020-101000-
NORTHWEST INDIANA

CITY           SKY/WX    TMP DP  RH WIND       PRES   REMARKS
GARY /AIRPORT/ MOCLDY    22  15  74 W6        30.53S WCI  15
KNOX *+        CLOUDY    19   0  42 W6        30.51F WCI  11
LA PORTE +     CLOUDY    19  12  74 W8        30.51S WCI   9
MONTICELLO +   CLOUDY    23  10  58 W6        30.52F WCI  15
RENSSELAER +     N/A     23  19  86 W6        30.52F WCI  16

$$

LMZ046-743>745-101000-
SOUTHERN LAKE MICHIGAN

STATION/POSITION TIME  TEMP    WIND        PRES    WAVE
                       AIR SEA DIR/SP/G            HT
                 (UTC) (F)     (DEG/KT/KT) (MB)    (FT)

$$

INZ004-005-014>016-021>024-101000-
NORTH CENTRAL INDIANA

CITY           SKY/WX    TMP DP  RH WIND       PRES   REMARKS
GOSHEN         CLOUDY    20  12  71 W12       30.47F WCI   8
SOUTH BEND     CLOUDY    19  13  77 W14       30.48F WCI   6
WARSAW +       CLOUDY    21  12  68 W9        30.49S WCI  11

$$

INZ006>009-017-018-025>027-101000-
NORTHEAST INDIANA

CITY           SKY/WX    TMP DP  RH WIND       PRES   REMARKS
ANGOLA *+      CLOUDY    19  16  86 W8        30.44F WCI   9
FORT WAYNE     MOCLDY    20  12  71 W9        30.51R WCI   9
KENDALLVILLE + CLOUDY    20  14  77 W9G17     30.47S WCI  10

$$

INZ028-029-035-036-043>045-051>053-101000-
WEST CENTRAL INDIANA

CITY           SKY/WX    TMP DP  RH WIND       PRES   REMARKS
CRAWFORDSVL +  CLOUDY    19  16  86 W6        30.53S WCI  11
GREENCASTLE +  CLOUDY    21  18  86 W3        30.54S
LAFAYETTE      CLOUDY    22  17  81 W6        30.53F WCI  14
TERRE HAUTE    CLOUDY    23  14  68 W3        30.56F

$$

INZ030>032-037>040-046>048-054>057-064-065-101000-
CENTRAL INDIANA

CITY           SKY/WX    TMP DP  RH WIND       PRES   REMARKS
FRANKFORT +    CLOUDY    26  20  80 W9        30.53S WCI  16
GREENWOOD *+   CLOUDY    23  18  81 CALM      30.53F
INDIANAPOLIS   CLOUDY    21  16  81 W7        30.52F WCI  12
-EAGLE CREEK   CLOUDY    22  16  78 VRB3      30.52F
KOKOMO +       CLOUDY    22  14  71 NW6       30.52F WCI  14
SHELBYVILLE    CLOUDY    23  15  71 W5        30.52F WCI  17
ZIONSVILLE +   CLOUDY    21  18  86 W6        30.52F WCI  14

$$

INZ033-034-041-042-049-050-058-059-101000-
EAST CENTRAL INDIANA

CITY           SKY/WX    TMP DP  RH WIND       PRES   REMARKS
MUNCIE         CLOUDY    23  15  71 W7        30.51S WCI  15

$$

INZ060-061-067>069-081>083-085>088-101000-
SOUTHWEST INDIANA

CITY           SKY/WX    TMP DP  RH WIND       PRES   REMARKS
EVANSVILLE     CLOUDY    20  15  81 CALM      30.60S
HUNTINGBURG *+ CLOUDY    17  15  92 CALM      30.58F

$$

INZ062-063-066-070>080-084-089>092-101000-
SOUTH CENTRAL AND SOUTHEAST INDIANA

CITY           SKY/WX    TMP DP  RH WIND       PRES   REMARKS
BLOOMINGTON      N/A     22  17  81 SW3       30.54S
MADISON *+     CLOUDY    21  18  86 CALM      30.57F
SEYMOUR +      CLOUDY    21  18  86 CALM      30.57S

$$





USA.gov is the U.S. government's official web portal to all federal, state and local government web resources and services.